Stations météo

Publicité
Bournemouth Airport, Grande-Bretagne (3862): Température de l'air & dewpoint: 20.09.2017 12:00:00 - 26.09.2017 12:00:00 (BST)Bournemouth Airport, Grande-Bretagne (3862): Température de l'air -20cm & Température de l'air -100cm: 20.09.2017 12:00:00 - 26.09.2017 12:00:00 (BST)Bournemouth Airport, Grande-Bretagne (3862): Vitesse du vent: 20.09.2017 12:00:00 - 26.09.2017 12:00:00 (BST)Bournemouth Airport, Grande-Bretagne (3862): Direction du vent: 20.09.2017 12:00:00 - 26.09.2017 12:00:00 (BST)Bournemouth Airport, Grande-Bretagne (3862): reduced air pressure: 20.09.2017 12:00:00 - 26.09.2017 12:00:00 (BST)Bournemouth Airport, Grande-Bretagne (3862): visibility: 20.09.2017 12:00:00 - 26.09.2017 12:00:00 (BST)Bournemouth Airport, Grande-Bretagne (3862): Ensoleillement: 20.09.2017 12:00:00 - 26.09.2017 12:00:00 (BST)Bournemouth Airport, Grande-Bretagne (3862): Quantités de précipitations: 20.09.2017 12:00:00 - 26.09.2017 12:00:00 (BST)
Date & Time tt [°C] td [°C] tt -20cm [°C] tt -100cm [°C] ff [km/h] ff [knt] dd ppp [hPa] vv [km] sd [min] rr [mm]
26.09.2017 12:00:00 17,0 14,0 - - 5 3 - - 5 - -
26.09.2017 11:00:00 16,2 14,5 - - 4 2 - 1022,4 4,0 0 0,0
26.09.2017 10:00:00 15,0 14,3 15,2 14,7 9 5 ENE 1022,1 2,5 0 0,0
26.09.2017 09:00:00 14,1 14,0 - - 2 1 - 1022,4 1,6 0 0,0
26.09.2017 08:00:00 13,5 13,4 - - 4 2 - 1022,0 1,6 0 0,0
26.09.2017 07:00:00 13,4 13,4 - - 8 4 NE 1021,4 0,6 0 0,0
26.09.2017 06:00:00 11,6 11,5 - - 4 2 NNW 1021,3 - 0 0,0
26.09.2017 05:00:00 12,4 12,2 - - 5 3 N 1021,3 1,0 0 0,0
26.09.2017 04:00:00 13,4 13,2 - - 5 3 NNE 1021,2 2,2 0 0,0
26.09.2017 03:00:00 13,7 13,5 - - 2 1 NE 1021,2 2,1 0 0,0
26.09.2017 02:00:00 13,7 13,4 - - 5 3 N 1021,3 1,9 0 0,0
26.09.2017 01:00:00 14,4 14,0 - - 5 3 NNW 1021,2 2,9 - 0,0
26.09.2017 00:00:00 14,5 14,0 - - 5 3 N 1021,1 3,3 0 0,0
25.09.2017 23:00:00 14,8 14,4 - - 8 4 N 1021,1 4,0 0 0,0
25.09.2017 22:00:00 15,0 14,5 - - 8 4 N 1021,3 4,5 0 0,0
25.09.2017 21:00:00 15,2 14,7 - - 8 4 NNW 1021,5 6 0 0,0
25.09.2017 20:00:00 15,7 15,0 - - 5 3 N 1021,0 10 0 0,0
25.09.2017 19:00:00 15,9 14,9 - - 5 3 N 1020,7 15 0 0,0
25.09.2017 18:00:00 16,7 14,8 - - 8 4 N 1020,3 10 0 0,0
25.09.2017 17:00:00 17,2 15,1 - - 8 4 NNE 1019,8 10 0 0,0
25.09.2017 16:00:00 17,0 14,7 - - 9 5 NNW 1019,6 10 0 0,0
25.09.2017 15:00:00 17,2 14,9 - - 9 5 NNW 1019,3 20 0 0,0
25.09.2017 14:00:00 17,3 15,0 - - 13 7 N 1019,0 10 0 0,0
25.09.2017 13:00:00 16,9 15,6 - - 13 7 NNW 1019,2 10 6 0,2
25.09.2017 12:00:00 15,9 15,1 - - 13 7 NNE 1019,0 9 0 0,0
25.09.2017 11:00:00 15,5 15,0 - - 9 5 - 1018,8 7 0 0,0
25.09.2017 10:00:00 15,4 15,1 15,0 14,5 11 6 - 1018,5 6 0 0,0
25.09.2017 09:00:00 15,0 14,9 - - 9 5 N 1018,2 4,0 0 0,0
25.09.2017 08:00:00 14,8 14,7 - - 8 4 - 1017,9 2,0 0 0,0
25.09.2017 07:00:00 14,7 14,6 - - 5 3 NNW 1017,5 2,0 0 0,0
25.09.2017 06:00:00 14,7 14,5 - - 4 2 N 1017,2 1,9 0 0,0
25.09.2017 05:00:00 14,7 14,5 - - 5 3 N 1017,0 1,5 0 0,2
25.09.2017 04:00:00 14,7 14,5 - - 4 2 NE 1017,1 4,0 0 0,0
25.09.2017 03:00:00 14,8 14,6 - - 4 2 NNE 1017,3 4,9 0 0,2
25.09.2017 02:00:00 14,9 14,5 - - 2 1 WSW 1017,7 3,7 0 0,4
25.09.2017 01:00:00 15,1 14,8 - - 8 4 E 1017,5 4,4 - 0,8
25.09.2017 00:00:00 15,0 14,7 - - 8 4 NE 1017,7 3,7 0 0,2
24.09.2017 23:00:00 15,2 14,8 - - 4 2 N 1018,5 3,0 0 0,2
24.09.2017 22:00:00 15,6 14,9 - - 8 4 E 1018,3 5 0 0,2
24.09.2017 21:00:00 16,1 14,7 - - 4 2 ESE 1018,4 10 0 0,0
24.09.2017 20:00:00 16,3 14,6 - - 4 2 ESE 1018,1 10 0 0,0
24.09.2017 19:00:00 16,7 14,4 - - 8 4 SE 1017,9 10 0 0,0
24.09.2017 18:00:00 17,2 13,8 - - 9 5 S 1018,0 10 0 0,0
24.09.2017 17:00:00 17,1 14,0 - - 9 5 SSE 1017,7 10 0 0,0
24.09.2017 16:00:00 17,3 13,7 - - 11 6 S 1017,4 10 0 0,0
24.09.2017 15:00:00 17,8 14,8 - - 16 9 SSE 1017,7 10 0 0,2
24.09.2017 14:00:00 18,0 13,9 - - 18 10 SSE 1017,8 10 12 0,0
24.09.2017 13:00:00 18,5 14,5 - - 16 9 SE 1017,9 10 0 0,0
24.09.2017 12:00:00 18,2 14,2 - - 15 8 SSE 1017,8 10 24 0,0
24.09.2017 11:00:00 18,6 14,3 - - 18 10 SSE 1018,2 10 36 0,0
24.09.2017 10:00:00 17,7 14,8 14,7 14,5 16 9 SSE 1018,2 10 12 0,0
24.09.2017 09:00:00 16,4 14,7 - - 11 6 ESE 1017,8 10 24 0,0
24.09.2017 08:00:00 14,2 13,9 - - 8 4 E 1017,5 10 0 0,0
24.09.2017 07:00:00 11,6 11,4 - - 9 5 E 1017,2 8 0 0,0
24.09.2017 06:00:00 11,2 10,9 - - 9 5 E 1017,3 7 0 0,0
24.09.2017 05:00:00 13,1 12,6 - - 8 4 ESE 1017,4 11 0 0,0
24.09.2017 04:00:00 13,2 12,9 - - 8 4 ESE 1017,8 13 0 0,0
24.09.2017 03:00:00 10,8 9,6 - - 8 4 E 1018,1 12 0 0,0
24.09.2017 02:00:00 12,0 10,8 - - 9 5 E 1018,5 18 0 0,0
24.09.2017 01:00:00 13,9 11,3 - - 9 5 ESE 1018,8 10 - 0,0
24.09.2017 00:00:00 13,6 11,5 - - 9 5 E 1019,1 10 0 0,0
23.09.2017 23:00:00 14,2 11,1 - - 13 7 ESE 1019,4 10 0 0,0
23.09.2017 22:00:00 14,0 11,4 - - 8 4 ESE 1019,7 10 0 0,0
23.09.2017 21:00:00 14,1 11,2 - - 11 6 ESE 1019,6 10 0 0,0
23.09.2017 20:00:00 14,4 10,5 - - 9 5 ESE 1019,7 10 0 0,0
23.09.2017 19:00:00 15,7 11,4 - - 13 7 SE 1019,7 10 0 0,0
23.09.2017 18:00:00 16,7 11,5 - - 16 9 SE 1019,9 10 54 0,0
23.09.2017 17:00:00 17,5 11,9 - - 16 9 SSE 1020,1 10 60 0,0
23.09.2017 16:00:00 18,0 11,6 - - 18 10 SSE 1020,3 10 60 0,0
23.09.2017 15:00:00 18,3 10,7 - - 21 11 SSE 1020,7 10 60 0,0
23.09.2017 14:00:00 18,3 10,4 - - 18 10 SSE 1021,1 24 60 0,0
23.09.2017 13:00:00 18,1 11,6 - - 18 10 S 1021,4 10 60 0,0
23.09.2017 12:00:00 17,5 12,2 - - 22 12 S 1021,5 10 60 0,0
23.09.2017 11:00:00 17,4 12,8 - - 21 11 S 1021,9 10 60 0,0
23.09.2017 10:00:00 17,2 13,2 14,2 14,5 21 11 S 1021,8 10 54 0,0
23.09.2017 09:00:00 15,9 12,2 - - 13 7 S 1021,6 10 24 0,0
23.09.2017 08:00:00 15,1 12,3 - - 9 5 S 1021,3 10 0 0,0
23.09.2017 07:00:00 15,0 11,7 - - 8 4 S 1021,0 10 0 0,0
23.09.2017 06:00:00 15,2 12,2 - - 9 5 SSW 1020,9 10 0 0,0
23.09.2017 05:00:00 15,1 11,9 - - 5 3 SSW 1020,9 30 0 0,0
23.09.2017 04:00:00 15,2 11,2 - - 5 3 S 1021,2 30 0 0,0
23.09.2017 03:00:00 15,4 12,7 - - 9 5 SSW 1021,2 29 0 0,0
23.09.2017 02:00:00 15,3 12,2 - - 15 8 SSW 1021,6 30 0 0,0
23.09.2017 01:00:00 15,4 12,2 - - 11 6 SSW 1022,1 30 - 0,0
23.09.2017 00:00:00 15,4 12,0 - - 13 7 SSW 1022,2 16 0 0,0
22.09.2017 23:00:00 15,4 12,0 - - 15 8 SSW 1021,9 10 0 0,0
22.09.2017 22:00:00 15,1 11,9 - - 15 8 SSW 1021,9 10 0 0,0
22.09.2017 21:00:00 15,0 11,2 - - 15 8 SSW 1021,6 10 0 0,0
22.09.2017 20:00:00 14,6 11,0 - - 11 6 SSW 1021,5 10 0 0,0
22.09.2017 19:00:00 14,4 10,2 - - 11 6 SSW 1021,6 10 0 0,0
22.09.2017 18:00:00 15,7 10,3 - - 15 8 SW 1021,5 10 24 0,0
22.09.2017 17:00:00 15,8 9,8 - - 18 10 SW 1021,3 10 18 0,0
22.09.2017 16:00:00 16,8 10,5 - - 22 12 SW 1021,4 10 54 0,0
22.09.2017 15:00:00 17,2 10,4 - - 21 11 SW 1021,4 10 36 0,0
22.09.2017 14:00:00 17,4 10,5 - - 18 10 SW 1021,5 10 48 0,0
22.09.2017 13:00:00 16,0 9,7 - - 18 10 SW 1021,4 10 42 0,0
22.09.2017 12:00:00 15,6 10,4 - - 15 8 SW 1021,6 10 18 0,0
22.09.2017 11:00:00 15,3 10,3 - - 11 6 S 1021,6 10 60 0,0
22.09.2017 10:00:00 11,0 11,0 14,2 14,7 2 1 - 1021,8 10 48 0,0
22.09.2017 09:00:00 6,7 6,7 - - 0 0 N 1021,6 10 54 0,0
22.09.2017 08:00:00 2,1 2,0 - - 2 1 - 1021,5 10 6 0,0
22.09.2017 07:00:00 1,5 1,4 - - 4 2 NNW 1021,3 9 0 0,0
22.09.2017 06:00:00 1,7 1,4 - - 4 2 NNW 1021,1 6 0 0,2
22.09.2017 05:00:00 2,5 2,3 - - 4 2 ENE 1021,0 7 0 0,0
22.09.2017 04:00:00 3,2 3,0 - - 2 1 NW 1021,0 2,9 0 0,0
22.09.2017 03:00:00 3,9 3,6 - - 2 1 NE 1020,9 0,2 0 0,0
22.09.2017 02:00:00 4,3 4,0 - - 2 1 W 1020,9 0,2 0 0,0
22.09.2017 01:00:00 5,8 5,5 - - 4 2 NW 1020,7 6 - 0,0
22.09.2017 00:00:00 5,9 5,5 - - 4 2 NW 1020,1 4,0 0 0,0
21.09.2017 23:00:00 7,2 6,6 - - 4 2 NNW 1019,6 6 0 0,0
21.09.2017 22:00:00 9,1 8,4 - - 5 3 NW 1019,3 10 0 0,0
21.09.2017 21:00:00 10,2 8,5 - - 4 2 W 1019,0 10 0 0,0
21.09.2017 20:00:00 10,8 8,4 - - 9 5 NNW 1018,3 10 0 0,0
21.09.2017 19:00:00 13,7 9,8 - - 15 8 NW 1017,3 10 18 0,0
21.09.2017 18:00:00 16,1 11,5 - - 18 10 NW 1016,4 10 60 0,0
21.09.2017 17:00:00 16,7 12,7 - - 18 10 WNW 1015,6 10 12 0,0
21.09.2017 16:00:00 16,1 14,1 - - 13 7 WNW 1015,0 10 0 0,0
21.09.2017 15:00:00 16,7 15,1 - - 13 7 W 1014,1 10 0 0,0
21.09.2017 14:00:00 16,0 14,9 - - 16 9 SSW 1013,7 10 0 0,0
21.09.2017 13:00:00 15,3 14,6 - - 21 11 SSW 1013,8 8 0 0,8
21.09.2017 12:00:00 15,2 14,5 - - 22 12 SSW 1014,0 7 0 0,8
21.09.2017 11:00:00 15,0 14,3 - - 22 12 SSW 1014,0 3,0 0 0,4
21.09.2017 10:00:00 15,7 13,2 14,7 14,7 24 13 S 1014,1 10 0 0,0
21.09.2017 09:00:00 15,2 13,2 - - 21 11 SSW 1014,1 10 0 0,0
21.09.2017 08:00:00 15,6 12,6 - - 18 10 S 1013,8 10 0 0,0
21.09.2017 07:00:00 15,0 12,0 - - 16 9 S 1013,8 23 0 0,0
21.09.2017 06:00:00 15,6 12,3 - - 15 8 S 1013,9 10 0 0,0
21.09.2017 05:00:00 15,6 12,8 - - 13 7 S 1014,2 23 0 0,0
21.09.2017 04:00:00 15,8 12,9 - - 11 6 S 1014,5 23 0 0,0
21.09.2017 03:00:00 15,6 12,5 - - 15 8 SSW 1015,1 25 0 0,0
21.09.2017 02:00:00 15,3 13,3 - - 11 6 SW 1015,5 23 0 0,0
21.09.2017 01:00:00 15,2 13,6 - - 13 7 SSW 1015,7 20 - 0,0
21.09.2017 00:00:00 14,6 13,7 - - 15 8 SW 1016,1 10 0 0,0
20.09.2017 23:00:00 15,0 13,7 - - 13 7 SW 1016,3 10 0 0,0
20.09.2017 22:00:00 16,2 12,7 - - 15 8 SSW 1016,3 10 0 0,0
20.09.2017 21:00:00 15,9 12,2 - - 18 10 SSW 1016,7 10 0 0,0
20.09.2017 20:00:00 15,9 11,2 - - 15 8 S 1016,8 10 0 0,0
20.09.2017 19:00:00 15,8 11,3 - - 22 12 S 1016,9 10 0 0,0
20.09.2017 18:00:00 16,4 10,7 - - 18 10 SW 1017,3 10 0 0,0
20.09.2017 17:00:00 16,5 12,0 - - 18 10 SSW 1017,6 10 0 0,0
20.09.2017 16:00:00 16,9 11,6 - - 22 12 SW 1018,2 10 0 0,0
20.09.2017 15:00:00 17,3 11,6 - - 22 12 SW 1018,4 10 0 0,0
20.09.2017 14:00:00 17,1 11,1 - - 21 11 SW 1018,8 10 0 0,0
20.09.2017 13:00:00 17,2 9,4 - - 22 12 SW 1019,0 10 12 0,0
20.09.2017 12:00:00 17,3 11,7 - - 18 10 SW 1019,1 10 0 0,0

tt = Température de l'air
td = dewpoint
tt -20cm = Température de l'air -20cm
tt -100cm = Température de l'air -100cm
ff = Vitesse du vent
dd = Direction du vent
ppp = reduced air pressure
vv = visibility
sd = Ensoleillement
rr = Quantités de précipitations

stations d'obs. à proximité